map of RVN home
RVN - Airport
Location
City:  Rovaniemi, Lappi (Lappland, Lapland), Finland
ICAO:EFRO
IATA:RVN

Details
Type:Airport (Aerodrome, Airfield)
Latitude:6633'42"N (66.561667)
Longitude:2549'51"E (25.830833)
Elevation:645 ft (197 m)
Variation:11.56E (WMM2015 magnetic declination)
0.19 annual change
Runways:1
Longest:9849 × 197 ft (3002 × 60 m), paved

Time
Time Zone:UTC+2 (DST+3)
Local Time:

Weather
METAR:EFRO 221950Z AUTO 22011KT CAVOK 00/M03 Q1013
TAF:EFRO 221723Z 2218/2318 21009KT 9999 BKN025 PROB30 2218/2221 7000 -SHSN BKN008
TEMPO 2221/2301 BKN006
TEMPO 2301/2306 1200 BR BKN002
TEMPO 2306/2309 BKN005

Related Locations
Nearby:
Farthest:NZTB: 11352 mi / 18269 km
Terra Nova Bay [Mario Zucchelli Station], AQ

Find:

   beyond  
but within

Other Information
Maps:
NOTAMs:
Links:
Sources:

  
flag of Finland   

Sectional Chart

Flight Planning
at skyvector.com

Satellite Image

Google Maps Satellite view

 

Copyright © 2004-2018 Karl L. Swartz. All rights reserved.
The Great Circle Mapper name and logo are trademarks of the Great Circle Mapper.
All other trademarks mentioned herein belong to their respective owners.
Please see credits for attibutions and further copyright information.

  Follow gcmap on Facebook Follow gcmap on Twitter Follow gcmap on Google+ GCmap on LinkedIn

hCard Microformat

Geo Microformat